• In Hungary
  • List of Countries
  • For 7 days
  • Water Temperature
  • Satellite Maps
  • Weather Map
  • News
  • Weather Widgets
  • user-avatar
    Login

    Hourly Weather Fargo

    Today, 19 September, Wednesday

    Time Temperature Precipitation Wind Pressure Humidity
    00:00 +12°C° 0 mm 1 mps 738 mmHg 87%
    01:00 +12°C° 0 mm 1 mps 738 mmHg 88%
    02:00 +12°C° 0 mm 2 mps 738 mmHg 89%
    03:00 +10°C° 0 mm 2 mps 738 mmHg 90%
    04:00 +10°C° 0 mm 2 mps 738 mmHg 89%
    05:00 +12°C° 0 mm 2 mps 738 mmHg 89%
    06:00 +12°C° 0 mm 2 mps 738 mmHg 88%
    07:00 +13°C° 0 mm 2 mps 739 mmHg 82%
    08:00 +13°C° 0 mm 3 mps 739 mmHg 75%
    09:00 +16°C° 0 mm 3 mps 739 mmHg 69%
    10:00 +17°C° 0 mm 3 mps 739 mmHg 64%
    11:00 +18°C° 0 mm 4 mps 739 mmHg 59%
    12:00 +20°C° 0 mm 4 mps 739 mmHg 53%
    13:00 +20°C° 0 mm 4 mps 739 mmHg 52%
    14:00 +21°C° 0 mm 4 mps 738 mmHg 51%
    15:00 +21°C° 0 mm 5 mps 738 mmHg 50%
    16:00 +20°C° 0 mm 4 mps 738 mmHg 53%
    17:00 +19°C° 0 mm 4 mps 738 mmHg 57%
    18:00 +18°C° 0 mm 3 mps 738 mmHg 61%
    19:00 +17°C° 0 mm 4 mps 738 mmHg 64%
    20:00 +15°C° 0 mm 4 mps 738 mmHg 67%
    21:00 +14°C° 0 mm 4 mps 738 mmHg 70%
    22:00 +14°C° 0 mm 4 mps 738 mmHg 71%
    23:00 +14°C° 0 mm 4 mps 738 mmHg 72%

    Tomorrow, 20 September, Thursday

    Time Temperature Precipitation Wind Pressure Humidity
    00:00 +13°C° 0 mm 4 mps 738 mmHg 74%
    01:00 +13°C° 0 mm 4 mps 738 mmHg 75%
    02:00 +12°C° 0 mm 4 mps 737 mmHg 76%
    03:00 +12°C° 0 mm 5 mps 737 mmHg 78%
    04:00 +12°C° 0 mm 5 mps 736 mmHg 79%
    05:00 +12°C° 0 mm 5 mps 736 mmHg 79%
    06:00 +10°C° 0 mm 5 mps 736 mmHg 80%
    07:00 +11°C° 0.4 mm 6 mps 735 mmHg 80%
    08:00 +11°C° 0.4 mm 6 mps 735 mmHg 79%
    09:00 +13°C° 0.4 mm 6 mps 734 mmHg 79%
    10:00 +13°C° 2.9 mm 6 mps 734 mmHg 82%
    11:00 +13°C° 2.9 mm 6 mps 733 mmHg 84%
    12:00 +12°C° 2.9 mm 7 mps 732 mmHg 87%
    13:00 +12°C° 3 mm 7 mps 731 mmHg 88%
    14:00 +13°C° 3 mm 6 mps 730 mmHg 89%
    15:00 +13°C° 3 mm 6 mps 729 mmHg 90%
    16:00 +13°C° 1 mm 6 mps 730 mmHg 90%
    17:00 +13°C° 1 mm 5 mps 730 mmHg 91%
    18:00 +13°C° 1 mm 5 mps 730 mmHg 91%
    19:00 +12°C° 0.4 mm 5 mps 730 mmHg 91%
    20:00 +12°C° 0.4 mm 5 mps 730 mmHg 91%
    21:00 +11°C° 0.4 mm 6 mps 731 mmHg 91%
    22:00 +10°C° 0.7 mm 6 mps 731 mmHg 91%
    23:00 +10°C° 0.7 mm 6 mps 731 mmHg 91%

    Day after tomorrow, 21 September, Friday

    Time Temperature Precipitation Wind Pressure Humidity
    00:00 +10°C° 0.7 mm 6 mps 732 mmHg 91%
    01:00 +9°C° 0.9 mm 7 mps 732 mmHg 90%
    02:00 +7°C° 0.9 mm 8 mps 733 mmHg 89%
    03:00 +6°C° 0.9 mm 9 mps 733 mmHg 88%
    04:00 +6°C° 0.3 mm 9 mps 734 mmHg 87%
    05:00 +6°C° 0.3 mm 9 mps 735 mmHg 86%
    06:00 +5°C° 0.3 mm 9 mps 736 mmHg 85%
    07:00 +6°C° 0.1 mm 8 mps 738 mmHg 82%
    08:00 +7°C° 0.1 mm 8 mps 739 mmHg 79%
    09:00 +8°C° 0.1 mm 7 mps 740 mmHg 76%
    10:00 +9°C° 0 mm 7 mps 741 mmHg 69%
    11:00 +11°C° 0 mm 6 mps 741 mmHg 63%
    12:00 +13°C° 0 mm 5 mps 742 mmHg 56%
    13:00 +14°C° 0 mm 4 mps 742 mmHg 53%
    14:00 +14°C° 0 mm 3 mps 742 mmHg 50%
    15:00 +16°C° 0 mm 2 mps 742 mmHg 47%
    16:00 +15°C° 0 mm 2 mps 742 mmHg 50%
    17:00 +14°C° 0 mm 1 mps 742 mmHg 54%
    18:00 +13°C° 0 mm 1 mps 742 mmHg 57%
    19:00 +12°C° 0 mm 2 mps 742 mmHg 60%
    20:00 +10°C° 0 mm 2 mps 742 mmHg 63%
    21:00 +9°C° 0 mm 3 mps 743 mmHg 65%
    22:00 +8°C° 0 mm 4 mps 742 mmHg 66%
    23:00 +8°C° 0 mm 4 mps 742 mmHg 66%

    22 September, Saturday

    Time Temperature Precipitation Wind Pressure Humidity
    00:00 +9°C° 0 mm 5 mps 742 mmHg 66%
    01:00 +8°C° 0 mm 5 mps 741 mmHg 67%
    02:00 +8°C° 0 mm 5 mps 741 mmHg 68%
    03:00 +8°C° 0 mm 6 mps 741 mmHg 69%
    04:00 +8°C° 0 mm 5 mps 741 mmHg 70%
    05:00 +8°C° 0 mm 4 mps 740 mmHg 70%
    06:00 +9°C° 0 mm 3 mps 740 mmHg 70%
    07:00 +10°C° 0 mm 3 mps 741 mmHg 68%
    08:00 +11°C° 0 mm 3 mps 741 mmHg 66%
    09:00 +12°C° 0 mm 3 mps 741 mmHg 64%
    10:00 +13°C° 0 mm 4 mps 741 mmHg 62%
    11:00 +14°C° 0 mm 4 mps 741 mmHg 59%
    12:00 +15°C° 0 mm 4 mps 741 mmHg 56%
    13:00 +15°C° 0 mm 5 mps 741 mmHg 57%
    14:00 +15°C° 0 mm 5 mps 741 mmHg 57%
    15:00 +15°C° 0 mm 5 mps 741 mmHg 57%
    16:00 +14°C° 0 mm 5 mps 741 mmHg 60%
    17:00 +13°C° 0 mm 5 mps 741 mmHg 63%
    18:00 +12°C° 0 mm 4 mps 741 mmHg 66%
    19:00 +10°C° 0 mm 5 mps 741 mmHg 68%
    20:00 +9°C° 0 mm 5 mps 742 mmHg 70%
    21:00 +8°C° 0 mm 5 mps 742 mmHg 71%
    22:00 +7°C° 0 mm 5 mps 742 mmHg 73%
    23:00 +7°C° 0 mm 5 mps 742 mmHg 75%

    23 September, Sunday

    Time Temperature Precipitation Wind Pressure Humidity
    00:00 +5°C° 0 mm 6 mps 742 mmHg 77%
    01:00 +5°C° 0 mm 6 mps 741 mmHg 78%
    02:00 +7°C° 0 mm 6 mps 741 mmHg 78%
    03:00 +7°C° 0 mm 6 mps 740 mmHg 79%
    04:00 +7°C° 0.3 mm 6 mps 740 mmHg 81%
    05:00 +7°C° 0.3 mm 6 mps 740 mmHg 83%
    06:00 +7°C° 0.3 mm 6 mps 739 mmHg 86%
    07:00 +8°C° 0.1 mm 6 mps 739 mmHg 86%
    08:00 +9°C° 0.1 mm 6 mps 738 mmHg 86%
    09:00 +10°C° 0.1 mm 7 mps 737 mmHg 86%
    10:00 +11°C° 0.3 mm 6 mps 736 mmHg 84%
    11:00 +13°C° 0.3 mm 6 mps 736 mmHg 83%
    12:00 +14°C° 0.3 mm 6 mps 735 mmHg 82%
    13:00 +16°C° 0.3 mm 5 mps 734 mmHg 79%
    14:00 +18°C° 0.3 mm 4 mps 733 mmHg 76%
    15:00 +19°C° 0.3 mm 3 mps 732 mmHg 74%
    16:00 +18°C° 0 mm 3 mps 732 mmHg 78%
    17:00 +17°C° 0 mm 3 mps 732 mmHg 82%
    18:00 +16°C° 0 mm 3 mps 731 mmHg 86%
    19:00 +14°C° 0 mm 3 mps 732 mmHg 89%
    20:00 +13°C° 0 mm 3 mps 732 mmHg 92%
    21:00 +12°C° 0 mm 3 mps 732 mmHg 95%
    22:00 +12°C° 0 mm 3 mps 732 mmHg 95%
    23:00 +11°C° 0 mm 3 mps 733 mmHg 95%

    24 September, Monday

    Time Temperature Precipitation Wind Pressure Humidity
    00:00 +11°C° 0 mm 3 mps 733 mmHg 95%
    01:00 +12°C° 0 mm 2 mps 733 mmHg 94%
    02:00 +10°C° 0 mm 2 mps 733 mmHg 94%
    03:00 +10°C° 0 mm 2 mps 733 mmHg 93%
    04:00 +11°C° 0 mm 1 mps 733 mmHg 94%
    05:00 +11°C° 0 mm 1 mps 734 mmHg 94%
    06:00 +10°C° 0 mm 1 mps 734 mmHg 95%
    07:00 +12°C° 0 mm 1 mps 734 mmHg 89%
    08:00 +13°C° 0 mm 2 mps 735 mmHg 84%
    09:00 +14°C° 0 mm 2 mps 735 mmHg 79%
    10:00 +14°C° 0 mm 3 mps 735 mmHg 75%
    11:00 +14°C° 0 mm 4 mps 735 mmHg 71%
    12:00 +15°C° 0 mm 5 mps 735 mmHg 67%
    13:00 +15°C° 0 mm 5 mps 735 mmHg 64%
    14:00 +15°C° 0 mm 6 mps 735 mmHg 62%
    15:00 +14°C° 0 mm 6 mps 735 mmHg 59%
    16:00 +13°C° 0 mm 5 mps 736 mmHg 61%
    17:00 +12°C° 0 mm 5 mps 736 mmHg 62%
    18:00 +11°C° 0 mm 4 mps 736 mmHg 63%
    19:00 +10°C° 0 mm 3 mps 737 mmHg 67%
    20:00 +9°C° 0 mm 2 mps 737 mmHg 70%
    21:00 +9°C° 0 mm 1 mps 738 mmHg 74%
    22:00 +8°C° 0 mm 1 mps 738 mmHg 74%
    23:00 +8°C° 0 mm 1 mps 738 mmHg 75%
    Show more